SKW4657 KAVL-KORD

Flight info

Callsign SKW4657
Flight time 1h 25m
Altitude 30000
Route DOOGE Q93 HEVAN BONNT VEECK5
Aircraft E75L/M-SDE3GILORVW/S

Departure

Time 2026-04-26 15:27
Airport Asheville Regional Airport (KAVL)

Arrival

Time 2026-04-26 16:52
Airport Chicago O'Hare International Airport (KORD)
Time Latitude Longitude Altitude Speed Heading
2026-04-26 15:10 35.43485 -82.53879 2146 ft 0 kts 101°
2026-04-26 15:18 35.43485 -82.53878 2146 ft 0 kts 101°
2026-04-26 15:19 35.43486 -82.53889 2146 ft 2 kts 84°
2026-04-26 15:19 35.43481 -82.53907 2146 ft 2 kts 57°
2026-04-26 15:19 35.43471 -82.53919 2145 ft 2 kts 30°
2026-04-26 15:19 35.43457 -82.53925 2144 ft 2 kts
2026-04-26 15:20 35.43443 -82.53922 2143 ft 1 kts 338°
2026-04-26 15:20 35.43440 -82.53921 2143 ft 0 kts 338°
2026-04-26 15:22 35.43441 -82.53921 2143 ft 0 kts 339°
2026-04-26 15:22 35.43444 -82.53923 2143 ft 1 kts 340°
2026-04-26 15:22 35.43462 -82.53931 2144 ft 5 kts 341°
2026-04-26 15:22 35.43509 -82.53954 2148 ft 9 kts 324°
2026-04-26 15:23 35.43489 -82.54005 2147 ft 13 kts 168°
2026-04-26 15:23 35.43357 -82.53947 2140 ft 25 kts 160°
2026-04-26 15:23 35.43176 -82.53866 2129 ft 30 kts 160°
2026-04-26 15:23 35.42983 -82.53779 2116 ft 28 kts 160°
2026-04-26 15:24 35.42799 -82.53696 2104 ft 22 kts 160°
2026-04-26 15:24 35.42682 -82.53644 2096 ft 11 kts 159°
2026-04-26 15:24 35.42633 -82.53636 2094 ft 0 kts 209°
2026-04-26 15:24 35.42632 -82.53637 2094 ft 0 kts 210°
2026-04-26 15:25 35.42632 -82.53638 2094 ft 0 kts 211°
2026-04-26 15:25 35.42609 -82.53683 2094 ft 10 kts 249°
2026-04-26 15:26 35.42622 -82.53758 2096 ft 9 kts 327°
2026-04-26 15:26 35.42770 -82.53826 2105 ft 51 kts 340°
2026-04-26 15:26 35.43307 -82.54067 2141 ft 111 kts 340°
2026-04-26 15:26 35.44214 -82.54477 2158 ft 162 kts 340°
2026-04-26 15:27 35.45301 -82.54975 2584 ft 174 kts 340°
2026-04-26 15:27 35.46447 -82.55537 3243 ft 180 kts 340°
2026-04-26 15:27 35.47597 -82.56092 3866 ft 188 kts 340°
2026-04-26 15:27 35.48893 -82.56712 4273 ft 211 kts 340°
2026-04-26 15:28 35.50320 -82.57325 4834 ft 222 kts 354°
2026-04-26 15:28 35.51875 -82.57256 5382 ft 231 kts
2026-04-26 15:28 35.53585 -82.57146 5608 ft 258 kts
2026-04-26 15:28 35.55440 -82.57100 6087 ft 273 kts
2026-04-26 15:29 35.57348 -82.57091 6807 ft 277 kts
2026-04-26 15:29 35.59242 -82.57100 7642 ft 275 kts
2026-04-26 15:29 35.63052 -82.57139 9173 ft 274 kts
2026-04-26 15:30 35.66886 -82.57188 10482 ft 280 kts
2026-04-26 15:30 35.68837 -82.57213 11019 ft 286 kts
2026-04-26 15:30 35.70861 -82.57239 11507 ft 294 kts
2026-04-26 15:31 35.72926 -82.57266 11973 ft 302 kts
2026-04-26 15:31 35.77202 -82.57323 13007 ft 313 kts
2026-04-26 15:31 35.79391 -82.57353 13634 ft 315 kts
2026-04-26 15:32 35.83057 -82.57402 14656 ft 318 kts
2026-04-26 15:32 35.86002 -82.57441 15370 ft 322 kts
2026-04-26 15:32 35.88268 -82.57471 15900 ft 326 kts
2026-04-26 15:33 35.90531 -82.57502 16437 ft 329 kts
2026-04-26 15:33 35.92828 -82.57533 16984 ft 331 kts
2026-04-26 15:33 35.95133 -82.57564 17501 ft 334 kts
2026-04-26 15:33 35.97464 -82.57595 18024 ft 336 kts 360°
2026-04-26 15:34 35.99823 -82.57626 18557 ft 338 kts 359°
2026-04-26 15:34 36.02182 -82.57658 19036 ft 341 kts 359°
2026-04-26 15:34 36.04578 -82.57690 19509 ft 345 kts 358°
2026-04-26 15:34 36.06990 -82.57723 19992 ft 347 kts 358°
2026-04-26 15:35 36.09412 -82.57756 20477 ft 350 kts 358°
2026-04-26 15:35 36.11842 -82.57789 20964 ft 352 kts 357°
2026-04-26 15:35 36.14301 -82.57822 21457 ft 354 kts 357°
2026-04-26 15:35 36.16771 -82.57855 21913 ft 356 kts 357°
2026-04-26 15:36 36.19259 -82.57889 22372 ft 358 kts 356°
2026-04-26 15:36 36.21749 -82.57923 22835 ft 360 kts 356°
2026-04-26 15:36 36.24263 -82.57957 23262 ft 363 kts 356°
2026-04-26 15:36 36.26788 -82.57991 23687 ft 366 kts 356°
2026-04-26 15:37 36.29321 -82.58026 24125 ft 368 kts 356°
2026-04-26 15:37 36.31886 -82.58061 24563 ft 370 kts 356°
2026-04-26 15:37 36.34476 -82.58096 24975 ft 373 kts 356°
2026-04-26 15:37 36.37082 -82.58131 25389 ft 375 kts 356°
2026-04-26 15:38 36.39696 -82.58167 25811 ft 377 kts 356°
2026-04-26 15:38 36.42325 -82.58202 26226 ft 378 kts 356°
2026-04-26 15:38 36.44947 -82.58238 26601 ft 381 kts 356°
2026-04-26 15:38 36.47591 -82.58274 26982 ft 383 kts 356°
2026-04-26 15:39 36.50266 -82.58311 27350 ft 385 kts 356°
2026-04-26 15:39 36.52968 -82.58347 27722 ft 387 kts 356°
2026-04-26 15:39 36.55648 -82.58383 28118 ft 389 kts 356°
2026-04-26 15:39 36.57469 -82.58408 28382 ft 390 kts 356°
2026-04-26 15:40 36.61078 -82.58458 28836 ft 393 kts 357°
2026-04-26 15:40 36.63840 -82.58495 29153 ft 396 kts 357°
2026-04-26 15:40 36.66581 -82.58533 29495 ft 398 kts 356°
2026-04-26 15:40 36.69379 -82.58572 29840 ft 401 kts 357°
2026-04-26 15:41 36.72138 -82.58608 30010 ft 397 kts 357°
2026-04-26 15:41 36.74921 -82.58648 30044 ft 406 kts 357°
2026-04-26 15:41 36.80595 -82.59573 30064 ft 420 kts 341°
2026-04-26 15:42 36.85881 -82.62890 30051 ft 427 kts 322°
2026-04-26 15:42 36.90402 -82.67665 30047 ft 427 kts 321°
2026-04-26 15:43 36.95060 -82.72254 30052 ft 427 kts 322°
2026-04-26 15:44 37.02074 -82.79080 30047 ft 428 kts 322°
2026-04-26 15:44 37.09086 -82.85947 30042 ft 428 kts 320°
2026-04-26 15:45 37.15942 -82.93093 30045 ft 429 kts 320°
2026-04-26 15:46 37.22841 -83.00282 30042 ft 428 kts 320°
2026-04-26 15:46 37.26662 -83.04215 30049 ft 428 kts 322°
2026-04-26 15:47 37.34473 -83.11932 30057 ft 430 kts 322°
2026-04-26 15:48 37.39148 -83.16569 30059 ft 428 kts 322°
2026-04-26 15:48 37.43833 -83.21223 30060 ft 428 kts 322°
2026-04-26 15:49 37.48488 -83.25856 30065 ft 430 kts 322°
2026-04-26 15:49 37.53182 -83.30534 30073 ft 430 kts 322°
2026-04-26 15:50 37.57846 -83.35191 30079 ft 430 kts 322°
2026-04-26 15:50 37.62518 -83.39864 30072 ft 430 kts 322°
2026-04-26 15:51 37.67209 -83.44563 30071 ft 431 kts 322°
2026-04-26 15:51 37.71902 -83.49271 30066 ft 429 kts 322°
2026-04-26 15:52 37.76547 -83.53940 30065 ft 431 kts 322°
2026-04-26 15:52 37.81238 -83.58663 30068 ft 430 kts 322°
2026-04-26 15:53 37.85910 -83.63374 30071 ft 431 kts 322°
2026-04-26 15:53 37.90558 -83.68069 30070 ft 432 kts 322°
2026-04-26 15:54 37.95249 -83.72814 30081 ft 431 kts 322°
2026-04-26 15:54 37.99924 -83.77552 30082 ft 430 kts 322°
2026-04-26 15:55 38.04592 -83.82291 30083 ft 432 kts 322°
2026-04-26 15:55 38.09249 -83.87027 30086 ft 429 kts 322°
2026-04-26 15:56 38.13903 -83.91767 30092 ft 429 kts 322°
2026-04-26 15:56 38.18536 -83.96495 30087 ft 430 kts 322°
2026-04-26 15:57 38.23196 -84.01257 30084 ft 430 kts 322°
2026-04-26 15:57 38.27835 -84.06007 30083 ft 431 kts 322°
2026-04-26 15:58 38.32514 -84.10804 30081 ft 430 kts 322°
2026-04-26 15:58 38.37146 -84.15562 30069 ft 429 kts 322°
2026-04-26 15:59 38.41807 -84.20268 30066 ft 428 kts 323°
2026-04-26 15:59 38.46520 -84.24860 30071 ft 428 kts 323°
2026-04-26 16:00 38.51242 -84.29477 30070 ft 428 kts 323°
2026-04-26 16:00 38.55942 -84.34081 30068 ft 428 kts 323°
2026-04-26 16:01 38.60634 -84.38683 30073 ft 428 kts 323°
2026-04-26 16:01 38.65343 -84.43311 30068 ft 427 kts 323°
2026-04-26 16:02 38.70052 -84.47947 30073 ft 427 kts 323°
2026-04-26 16:02 38.74742 -84.52572 30073 ft 426 kts 323°
2026-04-26 16:03 38.79405 -84.57178 30076 ft 425 kts 323°
2026-04-26 16:03 38.84079 -84.61803 30078 ft 425 kts 323°
2026-04-26 16:04 38.88733 -84.66415 30082 ft 424 kts 323°
2026-04-26 16:04 38.93407 -84.71056 30088 ft 425 kts 323°
2026-04-26 16:05 38.98080 -84.75703 30092 ft 424 kts 323°
2026-04-26 16:05 39.02719 -84.80325 30088 ft 424 kts 323°
2026-04-26 16:06 39.07383 -84.84980 30083 ft 423 kts 323°
2026-04-26 16:06 39.12009 -84.89604 30092 ft 423 kts 323°
2026-04-26 16:07 39.16662 -84.94264 30088 ft 422 kts 323°
2026-04-26 16:07 39.21294 -84.98910 30090 ft 422 kts 323°
2026-04-26 16:08 39.25924 -85.03562 30090 ft 423 kts 323°
2026-04-26 16:08 39.30545 -85.08214 30090 ft 423 kts 323°
2026-04-26 16:09 39.35287 -85.12711 30092 ft 422 kts 331°
2026-04-26 16:09 39.40709 -85.15561 30094 ft 422 kts 340°
2026-04-26 16:10 39.46230 -85.18166 30093 ft 423 kts 339°
2026-04-26 16:10 39.51744 -85.20785 30091 ft 424 kts 339°
2026-04-26 16:11 39.57265 -85.23414 30082 ft 422 kts 339°
2026-04-26 16:11 39.62791 -85.26049 30084 ft 422 kts 339°
2026-04-26 16:12 39.68323 -85.28691 30089 ft 423 kts 339°
2026-04-26 16:12 39.76604 -85.32655 30094 ft 424 kts 339°
2026-04-26 16:13 39.82104 -85.35294 30093 ft 423 kts 339°
2026-04-26 16:13 39.87618 -85.37943 30085 ft 416 kts 339°
2026-04-26 16:14 39.90248 -85.39208 29818 ft 398 kts 339°
2026-04-26 16:14 39.92837 -85.40456 29038 ft 393 kts 339°
2026-04-26 16:14 39.97975 -85.42934 28146 ft 403 kts 339°
2026-04-26 16:15 40.00627 -85.44213 28117 ft 414 kts 339°
2026-04-26 16:15 40.06036 -85.46828 28101 ft 416 kts 339°
2026-04-26 16:16 40.14166 -85.50765 28105 ft 415 kts 339°
2026-04-26 16:16 40.19590 -85.53398 28104 ft 415 kts 339°
2026-04-26 16:17 40.24976 -85.56016 28108 ft 416 kts 339°
2026-04-26 16:17 40.30391 -85.58654 28110 ft 416 kts 339°
2026-04-26 16:18 40.38522 -85.62623 28109 ft 417 kts 339°
2026-04-26 16:19 40.46640 -85.66595 28118 ft 415 kts 338°
2026-04-26 16:20 40.54923 -85.69983 28115 ft 417 kts 343°
2026-04-26 16:20 40.63324 -85.73051 28114 ft 417 kts 342°
2026-04-26 16:21 40.68916 -85.75108 28109 ft 419 kts 342°
2026-04-26 16:21 40.74534 -85.77179 28104 ft 419 kts 342°
2026-04-26 16:22 40.80103 -85.79262 28101 ft 419 kts 339°
2026-04-26 16:22 40.85149 -85.82922 28103 ft 417 kts 320°
2026-04-26 16:23 40.89090 -85.88500 28107 ft 415 kts 303°
2026-04-26 16:23 40.91383 -85.95415 28105 ft 415 kts 289°
2026-04-26 16:24 40.93496 -86.02542 28106 ft 415 kts 293°
2026-04-26 16:24 40.95747 -86.09555 28106 ft 415 kts 293°
2026-04-26 16:25 40.98014 -86.16572 28105 ft 415 kts 293°
2026-04-26 16:25 41.00270 -86.23569 28102 ft 416 kts 294°
2026-04-26 16:26 41.02150 -86.29412 28106 ft 416 kts 293°
2026-04-26 16:26 41.04778 -86.37601 28106 ft 415 kts 293°
2026-04-26 16:27 41.07026 -86.44627 28099 ft 413 kts 293°
2026-04-26 16:27 41.09251 -86.51599 28092 ft 412 kts 293°
2026-04-26 16:28 41.11480 -86.58601 28098 ft 413 kts 293°
2026-04-26 16:28 41.14005 -86.65438 28111 ft 414 kts 298°
2026-04-26 16:29 41.16790 -86.72063 28105 ft 413 kts 298°
2026-04-26 16:29 41.19565 -86.78695 28109 ft 412 kts 298°
2026-04-26 16:30 41.22319 -86.85294 28097 ft 401 kts 298°
2026-04-26 16:30 41.24996 -86.91721 28107 ft 399 kts 298°
2026-04-26 16:31 41.27681 -86.98180 27616 ft 399 kts 298°
2026-04-26 16:31 41.28998 -87.01356 27189 ft 396 kts 298°
2026-04-26 16:31 41.30325 -87.04555 26756 ft 393 kts 298°
2026-04-26 16:32 41.31629 -87.07705 26254 ft 393 kts 298°
2026-04-26 16:32 41.32508 -87.09831 25274 ft 396 kts 297°
2026-04-26 16:32 41.34228 -87.13992 23542 ft 382 kts 297°
2026-04-26 16:32 41.35489 -87.17046 22347 ft 375 kts 297°
2026-04-26 16:33 41.36966 -87.19830 21190 ft 375 kts 313°
2026-04-26 16:33 41.38867 -87.22163 20065 ft 374 kts 315°
2026-04-26 16:33 41.40758 -87.24432 18930 ft 371 kts 315°
2026-04-26 16:33 41.42666 -87.26717 17793 ft 366 kts 315°
2026-04-26 16:34 41.44515 -87.28931 16677 ft 362 kts 315°
2026-04-26 16:34 41.46384 -87.31171 15555 ft 358 kts 316°
2026-04-26 16:34 41.48203 -87.33351 14467 ft 354 kts 316°
2026-04-26 16:34 41.50014 -87.35514 13387 ft 351 kts 319°
2026-04-26 16:35 41.51986 -87.37386 12325 ft 349 kts 324°
2026-04-26 16:35 41.53963 -87.39153 11283 ft 343 kts 324°
2026-04-26 16:35 41.55857 -87.40848 10990 ft 323 kts 325°
2026-04-26 16:35 41.57735 -87.42532 10968 ft 322 kts 325°
2026-04-26 16:36 41.59598 -87.44202 10964 ft 324 kts 324°
2026-04-26 16:36 41.61449 -87.45865 11025 ft 326 kts 324°
2026-04-26 16:36 41.63336 -87.47559 10964 ft 326 kts 324°
2026-04-26 16:36 41.65212 -87.49254 10958 ft 324 kts 322°
2026-04-26 16:37 41.66967 -87.51176 10961 ft 323 kts 318°
2026-04-26 16:37 41.68677 -87.53122 10960 ft 323 kts 318°
2026-04-26 16:37 41.70371 -87.55050 10961 ft 324 kts 318°
2026-04-26 16:37 41.72095 -87.57013 10961 ft 323 kts 318°
2026-04-26 16:38 41.73809 -87.58955 10957 ft 323 kts 319°
2026-04-26 16:38 41.75534 -87.60885 10966 ft 324 kts 319°
2026-04-26 16:38 41.77263 -87.62821 10963 ft 323 kts 319°
2026-04-26 16:38 41.78991 -87.64756 10952 ft 324 kts 319°
2026-04-26 16:39 41.80717 -87.66692 10958 ft 323 kts 318°
2026-04-26 16:39 41.82438 -87.68624 10959 ft 322 kts 317°
2026-04-26 16:39 41.83862 -87.70877 10972 ft 319 kts 302°
2026-04-26 16:39 41.85084 -87.73346 10968 ft 319 kts 301°
2026-04-26 16:40 41.86306 -87.75830 10958 ft 319 kts 301°
2026-04-26 16:40 41.87535 -87.78336 10958 ft 319 kts 300°
2026-04-26 16:40 41.88322 -87.81014 10965 ft 313 kts 274°
2026-04-26 16:40 41.88415 -87.83949 10974 ft 311 kts 268°
2026-04-26 16:41 41.88433 -87.86844 10958 ft 312 kts 268°
2026-04-26 16:41 41.88441 -87.89727 10958 ft 312 kts 268°
2026-04-26 16:41 41.88446 -87.92663 10951 ft 312 kts 268°
2026-04-26 16:41 41.88448 -87.95559 10949 ft 313 kts 268°
2026-04-26 16:42 41.88449 -87.98463 10947 ft 312 kts 267°
2026-04-26 16:42 41.88367 -88.01347 10932 ft 312 kts 265°
2026-04-26 16:42 41.88270 -88.04254 10663 ft 311 kts 265°
2026-04-26 16:42 41.88173 -88.07137 10321 ft 305 kts 265°
2026-04-26 16:43 41.88079 -88.09936 10009 ft 297 kts 265°
2026-04-26 16:43 41.87987 -88.12632 9678 ft 289 kts 265°
2026-04-26 16:43 41.87895 -88.15288 9235 ft 285 kts 265°
2026-04-26 16:43 41.87803 -88.17941 8704 ft 285 kts 265°
2026-04-26 16:44 41.87711 -88.20595 8156 ft 285 kts 265°
2026-04-26 16:44 41.87618 -88.23247 7624 ft 284 kts 265°
2026-04-26 16:44 41.87526 -88.25853 7126 ft 283 kts 265°
2026-04-26 16:44 41.87681 -88.28480 6573 ft 286 kts 289°
2026-04-26 16:45 41.88834 -88.30552 6365 ft 274 kts 327°
2026-04-26 16:45 41.90537 -88.31348 6381 ft 251 kts 355°
2026-04-26 16:45 41.92238 -88.31531 6246 ft 238 kts
2026-04-26 16:45 41.93694 -88.30750 5913 ft 227 kts 47°
2026-04-26 16:46 41.94705 -88.29134 5561 ft 224 kts 57°
2026-04-26 16:46 41.95626 -88.27466 5218 ft 224 kts 57°
2026-04-26 16:46 41.96277 -88.25614 4843 ft 218 kts 87°
2026-04-26 16:46 41.96342 -88.23603 4518 ft 216 kts 90°
2026-04-26 16:47 41.96376 -88.21609 4292 ft 208 kts 90°
2026-04-26 16:47 41.96408 -88.19779 4326 ft 189 kts 91°
2026-04-26 16:47 41.96417 -88.18061 4186 ft 179 kts 91°
2026-04-26 16:47 41.96426 -88.16400 3973 ft 178 kts 91°
2026-04-26 16:48 41.96436 -88.14727 3835 ft 180 kts 91°
2026-04-26 16:48 41.96446 -88.13052 3627 ft 180 kts 91°
2026-04-26 16:48 41.96457 -88.11372 3394 ft 180 kts 90°
2026-04-26 16:48 41.96468 -88.09693 3152 ft 178 kts 90°
2026-04-26 16:49 41.96478 -88.08061 2906 ft 173 kts 90°
2026-04-26 16:49 41.96487 -88.06457 2674 ft 173 kts 90°
2026-04-26 16:49 41.96497 -88.04833 2438 ft 174 kts 90°
2026-04-26 16:49 41.96506 -88.03231 2218 ft 165 kts 90°
2026-04-26 16:50 41.96514 -88.01782 2019 ft 146 kts 90°
2026-04-26 16:50 41.96521 -88.00491 1788 ft 132 kts 90°
2026-04-26 16:50 41.96528 -87.99319 1594 ft 121 kts 90°
2026-04-26 16:50 41.96534 -87.98216 1445 ft 119 kts 90°
2026-04-26 16:51 41.96539 -87.97095 1294 ft 121 kts 90°
2026-04-26 16:51 41.96547 -87.95947 1132 ft 122 kts 88°
2026-04-26 16:51 41.96564 -87.94821 964 ft 122 kts 89°
2026-04-26 16:51 41.96564 -87.93670 798 ft 122 kts 89°
2026-04-26 16:52 41.96569 -87.92537 674 ft 117 kts 89°
2026-04-26 16:52 41.96571 -87.91853 666 ft 97 kts 91°
2026-04-26 16:52 41.96571 -87.90910 664 ft 54 kts 86°
2026-04-26 16:52 41.96600 -87.90569 662 ft 29 kts 73°
2026-04-26 16:53 41.96687 -87.90321 660 ft 29 kts 62°
2026-04-26 16:53 41.96739 -87.90126 657 ft 19 kts 88°
2026-04-26 16:53 41.96741 -87.89896 651 ft 28 kts 89°
2026-04-26 16:53 41.96740 -87.89623 648 ft 29 kts 89°
2026-04-26 16:54 41.96759 -87.89452 648 ft 10 kts 37°
2026-04-26 16:54 41.96830 -87.89439 649 ft 12 kts 359°
2026-04-26 16:54 41.96952 -87.89439 652 ft 19 kts 359°
2026-04-26 16:54 41.97061 -87.89458 653 ft 12 kts 315°
2026-04-26 16:55 41.97120 -87.89594 653 ft 20 kts 313°
2026-04-26 16:55 41.97233 -87.89709 654 ft 16 kts 324°
2026-04-26 16:55 41.97246 -87.89792 655 ft 9 kts 242°
2026-04-26 16:55 41.97214 -87.89887 656 ft 16 kts 253°
2026-04-26 16:56 41.97205 -87.90245 661 ft 19 kts 270°
2026-04-26 16:56 41.97207 -87.90422 663 ft 19 kts 273°
2026-04-26 16:56 41.97216 -87.90604 664 ft 19 kts 274°
2026-04-26 16:57 41.97250 -87.90758 666 ft 10 kts 303°
2026-04-26 16:57 41.97305 -87.90786 666 ft 10 kts 23°
2026-04-26 16:57 41.97329 -87.90691 663 ft 3 kts 89°
2026-04-26 16:58 41.97329 -87.90669 663 ft 1 kts 90°
2026-04-26 16:58 41.97329 -87.90667 663 ft 0 kts 90°